This demonstration page uses our WeatherBlox Daily Observations layout. Learn more.

38.89511, -77.03637

Hourly Observations for November 3, 2017

Temp ( °F °C ) Dew Point ( °F °C ) Humidity (%) Winds ( mph kmh ) Pressure ( in mb ) Visibility ( mi km ) Precip ( " mm )
12:52 am 00:52 Clear 62 16.7 59 15 90 90 S 7 11 30.12 1020 10 16.09344 0 0
1:52 am 01:52 Clear 61 16.1 58 14.4 90 90 SSW 6 9 30.12 1020 10 16.09344 0 0
2:52 am 02:52 Clear 61 16.1 59 15 93 93 Calm 30.12 1020 10 16.09344 0 0
3:52 am 03:52 Clear 59 15 58 14.4 96 96 Calm 30.09 1019 8 12.874752 0 0
4:52 am 04:52 Clear 59 15 58 14.4 96 96 S 6 9 30.09 1019 10 16.09344 0 0
5:52 am 05:52 Clear 58 14.4 58 14.4 100 100 S 7 11 30.09 1019 10 16.09344 0 0
6:52 am 06:52 Clear 59 15 58 14.4 96 96 SSW 5 7 30.06 1018 10 16.09344 0 0
7:52 am 07:52 Mostly Sunny 60 15.6 58 14.4 93 93 WSW 3 6 30.06 1018 10 16.09344 0 0
8:52 am 08:52 Mostly Sunny 61 16.1 59 15 93 93 SW 6 9 30.09 1019 10 16.09344 0 0
9:52 am 09:52 Mostly Cloudy 63 17.2 60 15.6 90 90 S 8 13 30.09 1019 10 16.09344 0 0
10:52 am 10:52 Mostly Cloudy 66 18.9 59 15 78 78 S 7 11 30.06 1018 10 16.09344 0 0
11:52 am 11:52 Sunny 68 20 60 15.6 76 76 SSE 7 11 30.06 1018 10 16.09344 0 0
12:52 pm 12:52 Mostly Cloudy 73 22.8 61 16.1 66 66 S 7 11 30.03 1017 10 16.09344 0 0
1:52 pm 13:52 Mostly Cloudy 75 23.9 61 16.1 62 62 SE 5 7 30 1016 10 16.09344 0 0
2:52 pm 14:52 Mostly Cloudy 78 25.6 59 15 52 52 NNW 14 22 30.03 1017 10 16.09344 0 0
3:52 pm 15:52 Cloudy 77 25 61 16.1 58 58 NNW 10 17 30.03 1017 10 16.09344 0 0
4:52 pm 16:52 Cloudy 76 24.4 60 15.6 58 58 NW 10 17 30.03 1017 10 16.09344 0 0
5:52 pm 17:52 Mostly Cloudy 74 23.3 60 15.6 62 62 N 9 15 30.06 1018 10 16.09344 0 0
6:52 pm 18:52 Cloudy 72 22.2 61 16.1 68 68 N 8 13 30.06 1018 10 16.09344 0 0
7:52 pm 19:52 Cloudy 71 21.7 60 15.6 68 68 NNW 9 15 30.09 1019 10 16.09344 0 0
8:52 pm 20:52 Cloudy 70 21.1 58 14.4 66 66 N 16 26 30.12 1020 10 16.09344 0 0
9:52 pm 21:52 Mostly Cloudy 67 19.4 56 13.3 68 68 N 13 20 30.15 1021 10 16.09344 0 0
10:52 pm 22:52 Mostly Cloudy 65 18.3 55 12.8 70 70 N 16 26 30.18 1022 10 16.09344 0 0
11:26 pm 23:26 Mostly Cloudy 64 17.8 54 12.2 70 70 N 13 20 30.21 1023 10 16.09344 0 0
11:52 pm 23:52 Mostly Cloudy 63 17.2 52 11.1 68 68 N 18 30 30.21 1023 10 16.09344 0 0

Powered by AerisWeather